Binghamton, NY

12:56 AM EDT on July 21, 2017 (GMT -0400)
Binghamton Regional-Link

Weather History for KBGM - July, 2013

Change the Weather History Date:

Sunday, July 14, 2013

  Actual Average Record
Temperature  
Mean Temperature 76 °F 69 °F  
Max Temperature 85 °F 78 °F 93 °F (1954)
Min Temperature 67 °F 60 °F 50 °F (2009)
Degree Days  
Heating Degree Days 0 1  
Month to date heating degree days 0 14  
Since 1 June heating degree days 87 105  
Since 1 July heating degree days 0 14  
Cooling Degree Days 11 5  
Month to date cooling degree days 122 61  
Year to date cooling degree days 248 158  
Since 1 June cooling degree days 205 135  
Growing Degree Days 25 (Base 50)    
Moisture  
Dew Point 67 °F    
Average Humidity 81    
Maximum Humidity 100    
Minimum Humidity 62    
Precipitation  
Precipitation 0.00 in 0.11 in 1.17 in (2017)
Month to date precipitation 4.29 1.70  
Year to date precipitation 22.69 20.76  
Snow  
Snow 0.00 in 0.00 in T in (1954)
Month to date snowfall 0.0 0.0  
Since 1 June snowfall 0.0 0.0  
Since 1 July snowfall 0.0 0.0  
Snow Depth 0.00 in    
Sea Level Pressure  
Sea Level Pressure 30.32 in    
Wind  
Wind Speed 6 mph (SSW)    
Max Wind Speed 12 mph    
Max Gust Speed 16 mph    
Visibility 8 miles    
Events      
T = Trace of Precipitation, MM = Missing Value Source: NWS Daily Summary

Daily Weather History Graph

Daily Weather History Graph

Search for Another Location

Airport or City:

Trip Planner

Search our weather history database for the weather conditions in past years. The results will help you decide how hot, cold, wet, or windy it might be!

Date:

Astronomy

Jul. 14, 2013 Rise Set
Actual Time 5:40 AM EDT 8:38 PM EDT
Civil Twilight 5:06 AM EDT 9:12 PM EDT
Nautical Twilight 4:24 AM EDT 9:54 PM EDT
Astronomical Twilight 3:33 AM EDT 10:44 PM EDT
Moon 12:02 PM EDT (7/14) 11:41 PM EDT (7/14)
Length of Visible Light 16h 05m
Length of Day
14h 58m
Waxing Crescent, 35% of the Moon is Illuminated
Jul 14
Waxing Crescent
Jul 15
First Quarter
Jul 22
Full
Jul 29
Last Quarter
Aug 6
New

Hourly Weather History & Observations

Time (EDT) Temp. Heat Index Dew Point Humidity Pressure Visibility Wind Dir Wind Speed Gust Speed Precip Events Conditions
12:03 AM 69.8 °F - 66.2 °F 88% 30.33 in 10.0 mi SE 4.6 mph - N/A   Scattered Clouds
12:53 AM 68.0 °F - 66.0 °F 93% 30.32 in 9.0 mi SSE 4.6 mph - N/A   Clear
1:17 AM 69.8 °F - 66.2 °F 88% 30.34 in 9.0 mi SSE 4.6 mph - N/A   Mostly Cloudy
1:33 AM 68.0 °F - 66.2 °F 94% 30.34 in 8.0 mi SSE 4.6 mph - N/A   Scattered Clouds
1:53 AM 68.0 °F - 66.0 °F 93% 30.32 in 8.0 mi SSE 3.5 mph - N/A   Scattered Clouds
2:53 AM 68.0 °F - 66.0 °F 93% 30.32 in 6.0 mi SE 3.5 mph - N/A   Scattered Clouds
3:53 AM 68.0 °F - 66.0 °F 93% 30.32 in 5.0 mi Calm Calm - N/A   Overcast
4:53 AM 68.0 °F - 66.0 °F 93% 30.31 in 7.0 mi South 3.5 mph - N/A   Partly Cloudy
5:51 AM 66.2 °F - 66.2 °F 100% 30.35 in 2.5 mi South 3.5 mph - N/A   Scattered Clouds
5:53 AM 66.9 °F - 66.0 °F 97% 30.33 in 2.5 mi Calm Calm - N/A   Scattered Clouds
6:01 AM 68.0 °F - 66.2 °F 94% 30.36 in 2.5 mi Calm Calm - N/A   Mostly Cloudy
6:09 AM 68.0 °F - 66.2 °F 94% 30.36 in 3.0 mi Calm Calm - N/A   Mostly Cloudy
6:53 AM 69.1 °F - 66.9 °F 93% 30.34 in 4.0 mi South 3.5 mph - N/A   Clear
7:53 AM 73.0 °F - 68.0 °F 84% 30.35 in 9.0 mi SSW 5.8 mph - N/A   Partly Cloudy
8:53 AM 73.9 °F - 68.0 °F 82% 30.35 in 10.0 mi SSW 8.1 mph - N/A   Clear
9:53 AM 75.9 °F - 68.0 °F 76% 30.35 in 10.0 mi WSW 8.1 mph - N/A   Mostly Cloudy
10:24 AM 78.8 °F - 68.0 °F 69% 30.37 in 10.0 mi WSW 10.4 mph - N/A   Mostly Cloudy
10:53 AM 78.1 °F - 68.0 °F 71% 30.34 in 10.0 mi WSW 8.1 mph - N/A   Mostly Cloudy
11:53 AM 78.1 °F - 66.9 °F 68% 30.34 in 10.0 mi West 10.4 mph - N/A   Scattered Clouds
12:53 PM 81.0 °F 83.8 °F 68.0 °F 65% 30.33 in 10.0 mi WSW 8.1 mph - N/A   Scattered Clouds
1:53 PM 82.0 °F 84.9 °F 68.0 °F 62% 30.32 in 10.0 mi Variable 5.8 mph - N/A   Scattered Clouds
2:53 PM 81.0 °F 83.3 °F 66.9 °F 62% 30.31 in 10.0 mi SW 6.9 mph - N/A   Mostly Cloudy
3:53 PM 82.9 °F 85.8 °F 68.0 °F 60% 30.30 in 10.0 mi SW 10.4 mph - N/A   Scattered Clouds
4:53 PM 82.9 °F 86.5 °F 69.1 °F 63% 30.29 in 10.0 mi WSW 5.8 mph - N/A   Mostly Cloudy
5:53 PM 82.9 °F 85.8 °F 68.0 °F 60% 30.28 in 10.0 mi WSW 5.8 mph - N/A   Overcast
6:53 PM 82.9 °F 85.8 °F 68.0 °F 60% 30.27 in 10.0 mi WSW 6.9 mph - N/A   Partly Cloudy
7:53 PM 81.0 °F 83.8 °F 68.0 °F 65% 30.27 in 10.0 mi SW 3.5 mph - N/A   Clear
8:53 PM 78.1 °F - 68.0 °F 71% 30.28 in 10.0 mi SW 4.6 mph - N/A   Clear
9:53 PM 77.0 °F - 68.0 °F 74% 30.28 in 10.0 mi SW 4.6 mph - N/A   Clear
10:53 PM 75.9 °F - 68.0 °F 76% 30.27 in 10.0 mi SW 5.8 mph - N/A   Clear
11:53 PM 75.0 °F - 66.9 °F 76% 30.27 in 10.0 mi SW 5.8 mph - N/A   Clear